Location: Seattle
(47.6064°N, 122.3308°W)
Time: 01:47:21
(UTC-08:00)

Tiros 1 - Pass Details

Date: 26 November 2020
Orbit: 630 x 663 km, 48.4° (Epoch: 28 January)

Event Time Altitude Azimuth Distance (km) Brightness Sun altitude
Rises 15:41:48 0° 210° (SSW) 2,982 12.1 4.8°
Reaches altitude 10° 15:44:27 10° 198° (SSW) 2,072 10.8 4.4°
Maximum altitude 15:48:23 26° 143° (SE) 1,309 8.8 3.9°
Drops below altitude 10° 15:52:18 10° 87° (E) 2,072 9.3 3.4°
Sets 15:54:57 0° 75° (ENE) 2,982 10.0 3.0°
